User: anonymous   Login
Location: Niverville
(49.6028°N, 97.0419°W)
Time: 15:29:52
(UTC-05:00)
Language:

Cosmos 2237 Rocket - Orbit

View from above orbital plane
View from above orbital plane
View from above satellite
View from above satellite

Ground track
Ground track

The orbit data is extracted from the following two-line orbital elements,

1 22566U 93016B   15149.75731681  .00000163  00000-0  10905-3 0  9996
2 22566 071.0066 199.9578 0011174 204.0538 156.0064 14.14898886145264
Epoch (UTC): 29 May 2015 18:10:32
Eccentricity: 0.0011174
inclination: 71.0066°
perigee height: 834 km
apogee height: 851 km
right ascension of ascending node: 199.9578°
argument of perigee: 204.0538°
revolutions per day: 14.14898886
mean anomaly at epoch: 156.0064°
orbit number at epoch: 14526

The dashed part of the orbit path shows where the satellite is in the earth's shadow,  

DLR